« Back
NWS Peachtree City, Ga » Text Product » GA Regional Weather Roundup


Printer-friendly Version
Current Version              Previous Versions:   1  2  3  4  5  6  7  8  9  

Regional Weather Roundup

225
ASUS42 KFFC 211903
RWRGA
WEATHER ROUNDUP FOR GEORGIA
NATIONAL WEATHER SERVICE PEACHTREE CITY GA
300 PM EDT TUE OCT 21 2014

NOTE: "FAIR" INDICATES FEW OR NO CLOUDS BELOW 12,000 FEET WITH NO
SIGNIFICANT WEATHER AND/OR OBSTRUCTIONS TO VISIBILITY.

* = USE WITH CAUTION. THE STATIONS MARKED WITH AN ASTERISK MAY NOT
REPORT WEATHER SUCH AS PRECIPITATION, FOG, OR THUNDER AND ARE NOT
QUALITY CONTROLLED BY NWS.

THE REMARK "TC" DENOTES TEMPERATURE READING IN DEGREES CELSIUS.

GAZ001>058-212000-
NORTH GEORGIA

CITY           SKY/WX    TMP DP  RH WIND       PRES   REMARKS
ATLANTA        MOSUNNY   75  51  43 NW13      29.96F
ATHENS         SUNNY     75  49  39 NW13G23   29.92F
CHAMBLEE       SUNNY     73  51  46 NW13G20   29.96F
PEACHTREE CITY SUNNY     75  52  44 NW9G18    29.97F
ROME           MOSUNNY   75  49  39 NW10      29.97F
WEST ATLANTA   MOSUNNY   74  52  46 W9        29.96F
GAINESVILLE    SUNNY     71  48  43 W15G22    29.96F
CARTERSVILLE   MOSUNNY   74  53  48 N7        29.98F


CITY           SKY/WX    TMP DP  RH WIND       PRES   REMARKS
DALTON*        MOSUNNY   70  50  49 N3G16     29.99F
LAWRENCEVILLE* MOSUNNY   72  48  43 W12G18    29.95F
$$

GAZ059>098-102>109-212000-
CENTRAL GEORGIA

CITY           SKY/WX    TMP DP  RH WIND       PRES   REMARKS
AUGUSTA-BUSH   SUNNY     80  41  24 W12G26    29.89F
AUGUSTA-DANIEL SUNNY     79  42  26 NW10G20   29.91F
COLUMBUS       SUNNY     78  47  33 N9        29.97F
MACON          SUNNY     79  49  34 W10G17    29.94F


CITY           SKY/WX    TMP DP  RH WIND       PRES   REMARKS
LAGRANGE*      SUNNY     79  57  47 NW9G16    29.98F
SYLVANIA*      SUNNY     82  54  37 NW8       29.91F
MILLEDGEVILLE* SUNNY     77  55  47 NW6       29.93F
$$

GAZ099>101-110>166-212000-
SOUTH GEORGIA

CITY           SKY/WX    TMP DP  RH WIND       PRES   REMARKS
SAVANNAH       SUNNY     80  53  39 W12       29.91F
VALDOSTA       SUNNY     80  52  37 VRB5      29.94F
ALMA           SUNNY     80  50  34 NW7       29.93F
ST SIMONS      SUNNY     80  57  45 VRB5      29.92F
ALBANY         SUNNY     79  51  37 NW5       29.97F
BRUNSWICK      SUNNY     81  55  41 W7        29.92F


CITY           SKY/WX    TMP DP  RH WIND       PRES   REMARKS
BAINBRIDGE*    SUNNY     81  52  36 N6        29.96F
MOULTRIE*      SUNNY     77  50  38 W6        29.97F
VIDALIA*       SUNNY     79  52  38 W8        29.93F
WAYCROSS*      SUNNY     83  57  40 W10       29.92F
DOUGLAS*       SUNNY     81  46  30 N8        29.95F
$$



USA.gov is the U.S. government's official web portal to all federal, state and local government web resources and services.